Location: *
(51.1248°S, 108.4023°W)
Time: 05:14:11
(UTC+00:00)

N. Korean satellite - Pass Details

Date: 01 October 2021
Orbit: 450 x 495 km, 97.3° (Epoch: 18 October)

Event Time Altitude Azimuth Distance (km) Brightness Sun altitude
Rises 10:32:44 0° 48° (NE) 2,593 10.5 -19.7°
Reaches altitude 10° 10:35:06 10° 62° (ENE) 1,714 9.7 -19.4°
Maximum altitude 10:38:02 23° 115° (ESE) 1,114 9.3 -19.0°
Drops below altitude 10° 10:40:59 10° 168° (SSE) 1,717 9.9 -18.6°
Sets 10:43:22 0° 182° (S) 2,600 10.7 -18.3°
